Location: CNYAC Observatory
(43.2150°N, 74.9500°W)
Time: 06:09:58
(UTC-04:00)

Cosmos 1975 Rocket - Visible Passes

Search period start: 29 July 2016 00:00
Search period end: 08 August 2016 00:00
Orbit: 603 x 635 km, 82.5° (Epoch: 28 July)

Date Brightness Start Highest point End Pass type
(mag) Time Alt. Az. Time Alt. Az. Time Alt. Az.
29 Jul 3.3 21:50:20 10° NNW 21:54:39 69° W 21:58:29 13° S visible
30 Jul 4.4 22:07:59 10° NNW 22:11:58 36° W 22:15:56 10° SSW visible
31 Jul 3.8 20:47:34 10° N 20:51:34 35° ENE 20:55:35 10° SE visible
31 Jul 5.4 22:26:02 10° NW 22:29:11 20° W 22:32:20 10° SW visible
01 Aug 3.0 21:04:44 10° N 21:09:05 67° E 21:13:24 10° SSE visible
01 Aug 6.0 22:45:15 10° WNW 22:46:19 11° W 22:47:23 10° W visible
02 Aug 3.4 21:22:10 10° NNW 21:26:28 65° W 21:30:47 10° S visible
03 Aug 4.6 21:39:51 10° NNW 21:43:47 34° W 21:47:43 10° SSW visible
04 Aug 5.6 21:57:56 10° NW 22:01:00 19° W 22:04:04 10° SW visible
05 Aug 6.2 22:17:36 10° WNW 22:18:07 10° W 22:18:38 10° W visible
06 Aug 3.6 20:54:00 10° NNW 20:58:18 61° W 21:02:37 10° S visible
07 Aug 4.9 21:11:43 10° NNW 21:15:36 32° W 21:19:30 10° SSW visible
